SGDC

Last updated on Sat Jun 21 2025 00:02:45 GMT+0000 (Coordinated Universal Time)

1 42692U 17023B 25171.46105209 -.00000238 00000+0 00000+0 0 9991 2 42692 0.0496 80.1251 0001887 30.4386 249.4601 1.00273482 29777
UTC large
Height (km)
Speed (km/s)
/
Latitude / Longitude
Inclination (degrees)
Orbital Period (minutes)
Azimuth
Elevation
Range (km)
Doppler Factor

Next 0 passes for location: London (51.5072 / 0.1276)

Sorry there are no passes over London.